FW1214 Weather Reports


time (UTC)temp
C
wind
direction
speed
KPH
gust
KPH
rain 1hr
cm
rain 24hr
cm
rain mn
cm
humidity
%
barometer
mb
20260507151538 13 228 1.6 20.9 0.00 0.00 0.00 66 1017.1
20260507150035 12 220 4.8 17.7 0.00 0.00 0.00 70 1017.1
20260507144529 11 252 0.0 20.9 0.00 0.00 0.00 75 1017.3
20260507143038 10 202 3.2 16.1 0.00 0.00 0.00 77 1017.5
20260507141520 8 228 0.0 16.1 0.00 0.00 0.00 80 1017.5
20260507140016 -17 0.0 0.0 0.00 0.00 0.00 1017.6
20260507134512 -17 0.0 0.0 0.00 0.00 0.00 1018.1
20260507133007 -17 0.0 0.0 0.00 0.00 0.00 1018.1
20260507131506 -17 0.0 0.0 0.00 0.00 0.00 1018.2
20260507130058 -17 0.0 0.0 0.00 0.00 0.00 1018.4
20260507124556 -17 0.0 0.0 0.00 0.00 0.00 1018.7
20260507123104 -17 0.0 0.0 0.00 0.00 0.00 1018.8
20260507121547 -17 0.0 0.0 0.00 0.00 0.00 1018.8
20260507120041 -17 0.0 0.0 0.00 0.00 0.00 1018.7
20260507114536 -17 0.0 0.0 0.00 0.00 0.00 1019.1
20260507113033 2 188 0.0 4.8 0.00 0.00 0.00 94 1019.0
20260507111532 2 294 0.0 1.6 0.00 0.00 0.00 94 1019.0
20260507110031 2 227 0.0 3.2 0.00 0.00 0.00 94 1019.1
20260507104528 2 145 0.0 3.2 0.00 0.00 0.00 95 1019.3
20260507103030 2 253 0.0 8.0 0.00 0.00 0.00 95 1019.3
20260507101527 2 230 0.0 6.4 0.00 0.00 0.00 95 1019.3
20260507100034 2 218 0.0 3.2 0.00 0.00 0.00 94 1019.5
20260507094523 2 228 0.0 0.0 0.00 0.00 0.00 94 1019.7
20260507093020 2 237 0.0 1.6 0.00 0.00 0.00 94 1019.8
20260507091522 2 287 0.0 1.6 0.00 0.00 0.00 94 1019.8
20260507090016 3 235 0.0 1.6 0.00 0.00 0.00 94 1019.9
20260507084516 3 232 0.0 1.6 0.00 0.00 0.00 94 1019.9
20260507083013 3 168 0.0 3.2 0.00 0.00 0.00 94 1020.1
20260507081511 3 214 0.0 0.0 0.00 0.00 0.00 94 1020.2
20260507080010 3 189 0.0 0.0 0.00 0.00 0.00 94 1020.5
20260507074506 3 226 0.0 1.6 0.00 0.00 0.00 94 1020.7
20260507073007 3 236 0.0 0.0 0.00 0.00 0.00 94 1021.1
20260507071503 3 236 0.0 0.0 0.00 0.00 0.00 94 1021.3
20260507070106 3 247 0.0 1.6 0.00 0.00 0.00 94 1021.4
20260507064634 3 232 0.0 0.0 0.00 0.00 0.00 94 1021.6
20260507063114 3 284 0.0 0.0 0.00 0.00 0.00 94 1021.6
20260507061556 3 315 0.0 0.0 0.00 0.00 0.00 93 1021.8
20260507060111 4 337 0.0 0.0 0.00 0.00 0.00 93 1021.9
20260507054559 4 285 0.0 0.0 0.00 0.00 0.00 93 1022.0
20260507053056 5 282 0.0 0.0 0.00 0.00 0.00 92 1022.2
20260507051601 5 346 0.0 0.0 0.00 0.00 0.00 91 1022.1
20260507050048 5 314 0.0 0.0 0.00 0.00 0.00 91 1022.0
20260507044542 5 18 0.0 0.0 0.00 0.00 0.00 91 1022.0
20260507043042 6 306 0.0 0.0 0.00 0.00 0.00 91 1022.2
20260507041541 6 252 0.0 0.0 0.00 0.00 0.00 91 1022.1
20260507040040 6 349 0.0 0.0 0.00 0.00 0.00 90 1022.1
20260507034540 6 358 0.0 0.0 0.00 0.00 0.00 89 1022.2
20260507033040 7 292 0.0 0.0 0.00 0.00 0.00 88 1022.0
20260507031539 7 15 0.0 0.0 0.00 0.00 0.00 87 1022.1
20260507030040 8 3 0.0 0.0 0.00 0.00 0.00 86 1022.0
20260507024538 8 9 0.0 0.0 0.00 0.00 0.00 85 1021.6
20260507023042 8 346 0.0 0.0 0.00 0.00 0.00 85 1021.5
20260507021542 8 359 0.0 0.0 0.00 0.00 0.00 85 1021.3
20260507020039 8 327 0.0 0.0 0.00 0.00 0.00 84 1021.3
20260507014543 9 23 0.0 0.0 0.00 0.00 0.00 81 1021.1
20260507013036 10 338 0.0 0.0 0.00 0.00 0.00 80 1020.9
20260507011539 10 7 0.0 0.0 0.00 0.00 0.00 78 1020.7
20260507010054 10 12 0.0 0.0 0.00 0.00 0.00 76 1021.1
20260507004536 10 20 0.0 0.0 0.00 0.00 0.00 77 1020.9
20260507003034 10 274 0.0 0.0 0.00 0.00 0.00 76 1020.8
20260507001534 10 7 0.0 0.0 0.00 0.00 0.00 75 1020.9
20260507000035 10 285 0.0 0.0 0.00 0.00 0.00 74 1020.9
20260506234533 11 241 0.0 1.6 0.00 0.00 0.00 73 1020.8
20260506233033 11 341 0.0 0.0 0.00 0.00 0.00 72 1021.1
20260506231533 11 303 0.0 0.0 0.00 0.00 0.00 71 1021.0
20260506230036 11 256 0.0 0.0 0.00 0.00 0.00 71 1021.0
20260506224536 11 330 0.0 0.0 0.00 0.00 0.00 69 1021.0
20260506223031 12 349 0.0 0.0 0.00 0.00 0.00 67 1021.0
20260506221529 13 332 0.0 0.0 0.00 0.00 0.00 65 1021.0
20260506220035 13 221 0.0 0.0 0.00 0.00 0.00 69 1020.9
20260506214526 12 118 0.0 1.6 0.00 0.00 0.00 68 1021.0
20260506213024 12 304 0.0 0.0 0.00 0.00 0.00 68 1021.3
20260506211529 11 14 0.0 0.0 0.00 0.00 0.00 70 1021.5
20260506210025 11 321 0.0 0.0 0.00 0.00 0.00 71 1021.7
20260506204519 11 360 0.0 0.0 0.00 0.00 0.00 71 1021.9
20260506203018 11 217 0.0 0.0 0.00 0.00 0.00 73 1022.0
20260506201527 11 16 0.0 0.0 0.00 0.00 0.00 75 1022.2
20260506200016 11 210 0.0 0.0 0.00 0.00 0.00 74 1022.3
20260506194515 10 227 0.0 0.0 0.00 0.00 0.00 75 1022.6
20260506193013 10 106 0.0 0.0 0.00 0.00 0.00 76 1022.6
20260506191512 10 203 0.0 0.0 0.00 0.00 0.00 77 1022.6
20260506190015 10 107 0.0 0.0 0.00 0.00 0.00 78 1022.8
20260506184518 10 114 0.0 0.0 0.00 0.00 0.00 80 1022.9
20260506183006 10 150 0.0 0.0 0.00 0.00 0.00 82 1022.9
20260506181503 9 88 0.0 0.0 0.00 0.00 0.00 86 1023.0
20260506180100 8 29 0.0 0.0 0.00 0.00 0.00 88 1023.1
20260506174600 7 86 0.0 0.0 0.00 0.00 0.00 87 1023.0
20260506173056 7 75 0.0 0.0 0.00 0.00 0.00 91 1023.0
20260506171603 7 59 0.0 1.6 0.00 0.00 0.00 92 1022.9
20260506170057 6 71 0.0 1.6 0.00 0.00 0.00 92 1023.1
20260506164551 6 60 0.0 0.0 0.00 0.00 0.00 93 1023.1
20260506163049 6 67 0.0 0.0 0.00 0.00 0.00 94 1023.0
20260506161548 6 50 0.0 0.0 0.00 0.00 0.00 95 1023.0
20260506160059 6 33 0.0 0.0 0.00 0.00 0.00 96 1023.0
20260506154545 6 44 0.0 0.0 0.00 0.00 0.00 96 1023.0
20260506153044 6 355 0.0 0.0 0.00 0.00 0.00 96 1022.9